TimeCDT,TemperatureF,Dew PointF,Humidity,Sea Level PressureIn,VisibilityMPH,Wind Direction,Wind SpeedMPH,Gust SpeedMPH,PrecipitationIn,Events,Conditions,WindDirDegrees,DateUTC
12:52 AM,25.0,19.9,81,30.28,10.0,Calm,Calm,-,N/A,,Clear,0,2014-03-30 05:52:00
1:52 AM,24.1,19.0,81,30.28,10.0,Calm,Calm,-,N/A,,Clear,0,2014-03-30 06:52:00
2:52 AM,24.1,19.0,81,30.28,10.0,WNW,3.5,-,N/A,,Clear,290,2014-03-30 07:52:00
3:52 AM,21.0,18.0,88,30.27,10.0,Calm,Calm,-,N/A,,Clear,0,2014-03-30 08:52:00
4:52 AM,21.9,19.0,89,30.26,10.0,Calm,Calm,-,N/A,,Clear,0,2014-03-30 09:52:00
5:52 AM,21.0,18.0,88,30.25,10.0,Calm,Calm,-,N/A,,Clear,0,2014-03-30 10:52:00
6:52 AM,21.0,19.0,92,30.26,10.0,Calm,Calm,-,N/A,,Clear,0,2014-03-30 11:52:00
7:52 AM,28.9,23.0,78,30.27,10.0,Calm,Calm,-,N/A,,Clear,0,2014-03-30 12:52:00
8:52 AM,34.0,28.0,79,30.26,10.0,SSE,4.6,-,N/A,,Clear,160,2014-03-30 13:52:00
9:52 AM,39.0,26.1,60,30.26,10.0,South,5.8,-,N/A,,Clear,180,2014-03-30 14:52:00
10:52 AM,43.0,23.0,45,30.24,10.0,South,9.2,-,N/A,,Clear,190,2014-03-30 15:52:00
11:52 AM,46.0,23.0,40,30.22,10.0,SSW,3.5,-,N/A,,Clear,200,2014-03-30 16:52:00
12:52 PM,45.0,28.0,52,30.19,10.0,SE,10.4,-,N/A,,Clear,140,2014-03-30 17:52:00
1:52 PM,45.0,28.0,52,30.17,10.0,SE,11.5,-,N/A,,Clear,130,2014-03-30 18:52:00
2:52 PM,45.0,27.0,49,30.14,9.0,SE,13.8,-,N/A,,Clear,130,2014-03-30 19:52:00
3:52 PM,45.0,26.1,48,30.12,10.0,SE,11.5,-,N/A,,Clear,140,2014-03-30 20:52:00
4:52 PM,48.9,28.9,46,30.09,9.0,SE,9.2,-,N/A,,Clear,130,2014-03-30 21:52:00
5:52 PM,48.0,30.9,52,30.07,10.0,ESE,8.1,-,N/A,,Clear,120,2014-03-30 22:52:00
6:52 PM,41.0,30.9,67,30.07,9.0,ESE,8.1,-,N/A,,Clear,120,2014-03-30 23:52:00
7:52 PM,37.9,30.0,73,30.05,10.0,SE,4.6,-,N/A,,Clear,140,2014-03-31 00:52:00
8:52 PM,37.9,28.9,70,30.05,10.0,SSE,5.8,-,N/A,,Clear,150,2014-03-31 01:52:00
9:52 PM,46.9,32.0,56,30.04,10.0,South,12.7,-,N/A,,Clear,190,2014-03-31 02:52:00
10:52 PM,46.0,33.1,61,30.04,10.0,South,9.2,-,N/A,,Clear,180,2014-03-31 03:52:00
11:52 PM,45.0,32.0,60,30.04,10.0,South,10.4,-,N/A,,Clear,180,2014-03-31 04:52:00